FW3867 Weather Reports


Display with metric or nautical units.
time (UTC)temp
F
wind
direction
speed
MPH
gust
MPH
rain 1hr
in
rain 24hr
in
rain mn
in
humidity
%
barometer
mb
20260509101525 45 195 7.0 10.0 0.03 0.08 0.03 94 1010.5
20260509100023 45 224 6.0 14.0 0.02 0.07 0.02 94 1010.5
20260509094524 45 221 8.0 14.0 0.01 0.06 0.01 93 1010.7
20260509093019 45 224 8.0 13.0 0.00 0.05 0.00 92 1010.6
20260509091518 45 221 8.0 12.0 0.00 0.05 0.00 92 1010.7
20260509090042 45 221 6.0 11.0 0.00 0.05 0.00 92 1010.5
20260509084522 45 220 6.0 9.0 0.00 0.05 0.00 91 1010.6
20260509083037 45 223 5.0 7.0 0.00 0.05 0.00 91 1010.8
20260509081508 45 211 6.0 10.0 0.00 0.05 0.00 91 1010.9
20260509080011 45 218 6.0 9.0 0.00 0.05 0.00 91 1010.9
20260509074508 44 217 5.0 10.0 0.00 0.05 0.00 90 1011.0
20260509073002 44 215 6.0 9.0 0.00 0.05 0.00 88 1011.4
20260509071602 44 213 6.0 8.0 0.00 0.05 0.00 85 1011.4
20260509070059 44 226 6.0 9.0 0.00 0.05 0.00 83 1011.6
20260509064554 44 234 7.0 11.0 0.00 0.05 0.00 80 1011.9
20260509063104 44 222 5.0 9.0 0.00 0.05 0.00 79 1012.1
20260509061522 44 223 6.0 9.0 0.00 0.05 0.00 80 1012.2
20260509060020 44 213 5.0 8.0 0.00 0.05 0.00 78 1012.3
20260509054545 45 218 6.0 8.0 0.00 0.05 0.00 74 1012.4
20260509053046 46 207 5.0 7.0 0.00 0.05 0.00 69 1012.6
20260509051543 46 224 4.0 6.0 0.00 0.05 0.00 67 1012.7
20260509050050 46 26 1.0 2.0 0.00 0.05 0.00 67 1012.7
20260509044536 45 26 0.0 1.0 0.00 0.05 0.05 68 1012.7
20260509043042 46 26 0.0 1.0 0.00 0.05 0.05 67 1012.7
20260509041535 46 26 1.0 4.0 0.00 0.05 0.05 65 1012.7
20260509040030 46 27 3.0 5.0 0.00 0.05 0.05 64 1012.8
20260509034530 46 27 2.0 5.0 0.00 0.05 0.05 64 1012.9
20260509033037 46 27 3.0 8.0 0.00 0.05 0.05 64 1013.1
20260509031558 46 27 3.0 5.0 0.00 0.05 0.05 65 1013.0
20260509030059 46 27 3.0 5.0 0.00 0.05 0.05 66 1013.2
20260509024604 45 27 3.0 6.0 0.00 0.05 0.05 66 1013.2
20260509023055 46 27 0.0 0.0 0.00 0.05 0.05 67 1013.3
20260509021555 46 27 0.0 3.0 0.00 0.05 0.05 66 1013.3
20260509020056 47 27 1.0 3.0 0.00 0.05 0.05 65 1013.4
20260509014552 47 27 0.0 4.0 0.00 0.05 0.05 65 1013.3
20260509013055 47 27 3.0 5.0 0.00 0.05 0.05 65 1013.2
20260509011601 47 27 2.0 5.0 0.00 0.05 0.05 65 1013.0
20260509010055 47 27 3.0 6.0 0.00 0.05 0.05 64 1012.8
20260509004557 47 26 1.0 3.0 0.00 0.05 0.05 61 1012.6
20260509003048 48 27 1.0 4.0 0.00 0.05 0.05 61 1012.4
20260509001551 48 27 2.0 4.0 0.00 0.05 0.05 60 1012.3
20260509000048 49 28 0.0 4.0 0.00 0.05 0.05 61 1012.2
20260508234515 50 42 1.0 5.0 0.00 0.05 0.05 59 1012.1
20260508233015 51 26 4.0 5.0 0.00 0.05 0.05 57 1012.0
20260508231512 51 26 3.0 6.0 0.00 0.05 0.05 57 1011.9
20260508230012 51 27 3.0 6.0 0.00 0.05 0.05 56 1011.7
20260508224529 51 30 3.0 9.0 0.00 0.05 0.05 57 1011.9
20260508223012 52 30 5.0 9.0 0.00 0.05 0.05 55 1011.9
20260508221508 52 29 7.0 10.0 0.00 0.05 0.05 55 1011.8
20260508220009 52 28 3.0 6.0 0.00 0.05 0.05 57 1011.9
20260508214507 51 28 2.0 8.0 0.00 0.05 0.05 58 1011.9
20260508213008 51 27 4.0 8.0 0.00 0.05 0.05 57 1012.0
20260508211503 52 28 6.0 11.0 0.00 0.05 0.05 56 1012.1
20260508210002 53 29 2.0 5.0 0.00 0.05 0.05 56 1012.1
20260508204502 52 27 2.0 10.0 0.00 0.05 0.05 56 1012.2
20260508203107 52 28 11.0 16.0 0.00 0.05 0.05 54 1012.2
20260508201534 52 330 4.0 13.0 0.00 0.05 0.05 52 1012.5
20260508200041 52 346 8.0 23.0 0.00 0.05 0.05 52 1012.5
20260508194523 51 287 6.0 15.0 0.00 0.05 0.05 56 1012.7
20260508193021 50 328 9.0 16.0 0.00 0.05 0.05 57 1013.0
20260508191518 50 326 7.0 14.0 0.00 0.05 0.05 58 1013.0
20260508190020 50 309 7.0 15.0 0.00 0.05 0.05 59 1013.2
20260508184523 49 300 1.0 10.0 0.00 0.05 0.05 62 1013.2
20260508183010 48 348 7.0 15.0 0.00 0.05 0.05 64 1013.3
20260508181507 47 296 6.0 18.0 0.00 0.05 0.05 65 1013.6
20260508180005 47 324 7.0 15.0 0.00 0.05 0.05 66 1013.9
20260508174506 47 294 9.0 18.0 0.00 0.05 0.05 67 1014.0
20260508173103 46 310 8.0 16.0 0.00 0.05 0.05 71 1014.1
20260508171556 45 301 9.0 15.0 0.00 0.05 0.05 70 1014.2
20260508170051 44 294 6.0 14.0 0.00 0.05 0.05 76 1014.3
20260508164547 43 232 0.0 6.0 0.00 0.05 0.05 81 1014.4
20260508163048 42 271 3.0 7.0 0.00 0.05 0.05 83 1014.5
20260508161545 41 52 0.0 4.0 0.00 0.05 0.05 86 1014.7
20260508160042 41 59 2.0 7.0 0.00 0.05 0.05 88 1014.5
20260508154541 40 338 1.0 5.0 0.00 0.05 0.05 90 1014.5
20260508153040 39 28 3.0 6.0 0.00 0.05 0.05 90 1014.5
20260508151544 39 28 4.0 9.0 0.00 0.05 0.05 90 1014.4
20260508150018 39 346 4.0 10.0 0.00 0.05 0.05 92 1014.3
20260508144519 37 355 3.0 5.0 0.00 0.05 0.05 94 1014.0
20260508143046 36 307 5.0 8.0 0.00 0.05 0.05 94 1014.3
20260508141538 36 9 3.0 10.0 0.01 0.05 0.05 93 1014.2
20260508140042 36 9 6.0 10.0 0.02 0.05 0.05 93 1014.6
20260508134532 36 9 3.0 8.0 0.03 0.05 0.05 92 1014.1
20260508133030 35 26 2.0 6.0 0.04 0.05 0.05 92 1013.9
20260508131529 36 305 7.0 10.0 0.04 0.04 0.04 91 1014.0
20260508130027 36 300 6.0 11.0 0.03 0.03 0.03 89 1014.1
20260508124521 37 296 5.0 12.0 0.02 0.02 0.02 87 1014.0
20260508123018 38 298 7.0 15.0 0.01 0.01 0.01 83 1013.6
20260508121519 40 247 7.0 12.0 0.00 0.00 0.00 80 1013.4
20260508120017 40 223 5.0 8.0 0.00 0.00 0.00 80 1012.6
20260508114525 40 217 4.0 7.0 0.00 0.00 0.00 81 1012.4
20260508113009 40 273 2.0 4.0 0.00 0.00 0.00 82 1012.5
20260508111508 40 244 2.0 4.0 0.00 0.00 0.00 81 1012.7
20260508110005 40 264 1.0 7.0 0.00 0.00 0.00 79 1012.5
20260508104503 39 229 2.0 5.0 0.00 0.00 0.00 82 1012.7
20260508103004 39 281 2.0 4.0 0.00 0.00 0.00 82 1013.0